Jamestown, NY

11:53 AM EDT on July 20, 2017 (GMT -0400)
Chautauqua County-Jamestown

Weather History for KJHW - January, 2013

Change the Weather History Date:

Monday, January 14, 2013

  Actual Average Record
Temperature  
Mean Temperature 38 °F -  
Max Temperature 53 °F 30 °F 53 °F (2013)
Min Temperature 24 °F 9 °F -12 °F (1988)
Degree Days  
Heating Degree Days 26    
Moisture  
Dew Point 23 °F    
Average Humidity 78    
Maximum Humidity 94    
Minimum Humidity 64    
Precipitation  
Precipitation 0.01 in - - ()
Sea Level Pressure  
Sea Level Pressure 30.20 in    
Wind  
Wind Speed 12 mph (West)    
Max Wind Speed 28 mph    
Max Gust Speed 34 mph    
Visibility 10 miles    
Events      
Averages and records for this station are not official NWS values.
T = Trace of Precipitation, MM = Missing Value Source: NWS Daily Summary

Daily Weather History Graph

Daily Weather History Graph

Search for Another Location

Airport or City:

Trip Planner

Search our weather history database for the weather conditions in past years. The results will help you decide how hot, cold, wet, or windy it might be!

Date:

Astronomy

Jan. 14, 2013 Rise Set
Actual Time 7:43 AM EST 5:09 PM EST
Civil Twilight 7:12 AM EST 5:40 PM EST
Nautical Twilight 6:37 AM EST 6:15 PM EST
Astronomical Twilight 6:04 AM EST 6:48 PM EST
Moon 9:11 AM EST (1/14) 8:57 PM EST (1/14)
Length of Visible Light 10h 28m
Length of Day
9h 26m
Waxing Crescent, 11% of the Moon is Illuminated
Jan 14
Waxing Crescent
Jan 18
First Quarter
Jan 26
Full
Feb 3
Last Quarter
Feb 10
New

Hourly Weather History & Observations

Time (EST) Temp. Windchill Dew Point Humidity Pressure Visibility Wind Dir Wind Speed Gust Speed Precip Events Conditions
12:35 AM 53.6 °F - 51.8 °F 94% 29.83 in 10.0 mi SW 9.2 mph 17.3 mph N/A   Overcast
12:55 AM 42.8 °F 33.8 °F 35.6 °F 76% 29.89 in 4.0 mi West 21.9 mph 32.2 mph 0.01 in   Overcast
1:15 AM 39.2 °F 27.8 °F 35.6 °F 87% 29.93 in 4.0 mi West 27.6 mph 34.5 mph N/A   Overcast
1:35 AM 37.4 °F 26.1 °F 33.8 °F 87% 29.93 in 6.0 mi West 24.2 mph 34.5 mph N/A   Overcast
1:55 AM 35.6 °F 25.5 °F 33.8 °F 93% 29.95 in 6.0 mi WNW 17.3 mph 27.6 mph N/A   Overcast
2:15 AM 35.6 °F 27.1 °F 32.0 °F 87% 29.98 in 9.0 mi WNW 12.7 mph 21.9 mph N/A   Overcast
2:35 AM 35.6 °F 29.2 °F 33.8 °F 93% 29.99 in 10.0 mi WNW 8.1 mph - N/A   Overcast
2:55 AM 35.6 °F 29.9 °F 32.0 °F 87% 30.00 in 10.0 mi West 6.9 mph - N/A   Overcast
3:15 AM 35.6 °F 27.5 °F 32.0 °F 87% 30.01 in 10.0 mi West 11.5 mph - N/A   Overcast
3:55 AM 35.6 °F 27.5 °F 32.0 °F 87% 30.03 in 10.0 mi West 11.5 mph - N/A   Overcast
4:15 AM 35.6 °F 28.6 °F 33.8 °F 93% 30.02 in 10.0 mi West 9.2 mph - N/A   Overcast
5:15 AM 33.8 °F 24.3 °F 30.2 °F 87% 30.06 in 10.0 mi West 13.8 mph 21.9 mph N/A   Overcast
5:35 AM 32.0 °F 22.5 °F 30.2 °F 93% 30.08 in 7.0 mi WNW 12.7 mph 20.7 mph N/A   Overcast
5:55 AM 32.0 °F 20.8 °F 28.4 °F 87% 30.09 in 10.0 mi West 17.3 mph 23.0 mph N/A   Overcast
6:15 AM 32.0 °F 21.2 °F 28.4 °F 87% 30.10 in 10.0 mi West 16.1 mph 21.9 mph N/A   Overcast
6:35 AM 32.0 °F 20.5 °F 26.6 °F 80% 30.12 in 10.0 mi WNW 18.4 mph 21.9 mph N/A   Overcast
6:55 AM 30.2 °F 18.5 °F 26.6 °F 86% 30.14 in 10.0 mi West 17.3 mph 24.2 mph N/A   Overcast
7:15 AM 30.2 °F 21.3 °F 26.6 °F 86% 30.15 in 10.0 mi West 10.4 mph 20.7 mph N/A   Overcast
7:35 AM 30.2 °F 19.3 °F 24.8 °F 80% 30.17 in 10.0 mi WNW 15.0 mph 21.9 mph N/A   Overcast
7:55 AM 28.4 °F 18.0 °F 24.8 °F 86% 30.18 in 10.0 mi West 12.7 mph 19.6 mph N/A   Overcast
8:15 AM 28.4 °F 18.5 °F 24.8 °F 86% 30.19 in 10.0 mi West 11.5 mph 18.4 mph N/A   Overcast
8:35 AM 28.4 °F 21.2 °F 21.2 °F 74% 30.21 in 10.0 mi West 6.9 mph - N/A   Overcast
8:55 AM 28.4 °F 17.0 °F 21.2 °F 74% 30.23 in 10.0 mi West 15.0 mph 23.0 mph N/A   Overcast
9:15 AM 28.4 °F 19.7 °F 21.2 °F 74% 30.23 in 10.0 mi West 9.2 mph - N/A   Overcast
9:35 AM 28.4 °F 19.1 °F 21.2 °F 74% 30.24 in 10.0 mi West 10.4 mph 16.1 mph N/A   Overcast
9:55 AM 28.4 °F 17.5 °F 19.4 °F 69% 30.26 in 10.0 mi West 13.8 mph - N/A   Overcast
10:15 AM 28.4 °F 18.5 °F 19.4 °F 69% 30.26 in 10.0 mi West 11.5 mph - N/A   Overcast
10:35 AM 28.4 °F 18.0 °F 21.2 °F 74% 30.27 in 10.0 mi West 12.7 mph 17.3 mph N/A   Overcast
10:55 AM 28.4 °F 18.5 °F 21.2 °F 74% 30.27 in 10.0 mi West 11.5 mph - N/A   Overcast
11:15 AM 28.4 °F 20.4 °F 21.2 °F 74% 30.27 in 10.0 mi West 8.1 mph - N/A   Overcast
11:35 AM 26.6 °F 16.8 °F 21.2 °F 80% 30.26 in 10.0 mi West 10.4 mph - N/A   Overcast
11:55 AM 26.6 °F 17.5 °F 19.4 °F 74% 30.26 in 10.0 mi West 9.2 mph 16.1 mph N/A   Overcast
12:35 PM 26.6 °F 18.2 °F 19.4 °F 74% 30.26 in 10.0 mi West 8.1 mph - N/A   Overcast
12:55 PM 26.6 °F 16.8 °F 19.4 °F 74% 30.26 in 10.0 mi West 10.4 mph - N/A   Overcast
1:15 PM 26.6 °F 15.7 °F 19.4 °F 74% 30.26 in 10.0 mi West 12.7 mph - N/A   Overcast
1:35 PM 26.6 °F 16.8 °F 19.4 °F 74% 30.25 in 10.0 mi West 10.4 mph - N/A   Overcast
1:55 PM 26.6 °F 17.5 °F 19.4 °F 74% 30.25 in 10.0 mi WSW 9.2 mph - N/A   Overcast
2:15 PM 26.6 °F 16.8 °F 17.6 °F 69% 30.25 in 10.0 mi West 10.4 mph - N/A   Overcast
2:35 PM 26.6 °F 19.1 °F 17.6 °F 69% 30.24 in 10.0 mi West 6.9 mph - N/A   Overcast
2:55 PM 26.6 °F 21.2 °F 19.4 °F 74% 30.23 in 10.0 mi NW 4.6 mph - N/A   Overcast
3:15 PM 26.6 °F 17.5 °F 19.4 °F 74% 30.26 in 10.0 mi WNW 9.2 mph - N/A   Overcast
3:35 PM 26.6 °F 16.2 °F 19.4 °F 74% 30.26 in 10.0 mi WNW 11.5 mph - N/A   Overcast
3:55 PM 26.6 °F 16.8 °F 19.4 °F 74% 30.28 in 10.0 mi WNW 10.4 mph - N/A   Overcast
4:15 PM 26.6 °F 19.1 °F 17.6 °F 69% 30.29 in 10.0 mi WNW 6.9 mph - N/A   Overcast
4:35 PM 26.6 °F 19.1 °F 17.6 °F 69% 30.28 in 10.0 mi NW 6.9 mph - N/A   Overcast
4:55 PM 26.6 °F 18.2 °F 17.6 °F 69% 30.31 in 10.0 mi WNW 8.1 mph - N/A   Overcast
5:15 PM 26.6 °F 18.2 °F 15.8 °F 64% 30.32 in 10.0 mi West 8.1 mph - N/A   Overcast
5:35 PM 26.6 °F 19.1 °F 17.6 °F 69% 30.30 in 10.0 mi WNW 6.9 mph - N/A   Overcast
5:55 PM 26.6 °F 17.5 °F 19.4 °F 74% 30.29 in 10.0 mi NNW 9.2 mph - N/A   Overcast
6:15 PM 26.6 °F 17.5 °F 17.6 °F 69% 30.35 in 10.0 mi WNW 9.2 mph - N/A   Overcast
6:35 PM 24.8 °F 16.1 °F 19.4 °F 80% 30.36 in 10.0 mi West 8.1 mph - N/A   Overcast
6:55 PM 24.8 °F 15.3 °F 19.4 °F 80% 30.33 in 10.0 mi NW 9.2 mph - N/A   Overcast
7:15 PM 24.8 °F 17.9 °F 17.6 °F 74% 30.30 in 10.0 mi West 5.8 mph - N/A   Overcast
7:35 PM 24.8 °F 17.9 °F 19.4 °F 80% 30.29 in 10.0 mi WNW 5.8 mph - N/A   Overcast
7:55 PM 24.8 °F 19.1 °F 17.6 °F 74% 30.28 in 10.0 mi WNW 4.6 mph - N/A   Overcast
8:15 PM 24.8 °F 20.5 °F 17.6 °F 74% 30.31 in 10.0 mi West 3.5 mph - N/A   Overcast
8:35 PM 24.8 °F 16.1 °F 19.4 °F 80% 30.34 in 10.0 mi WNW 8.1 mph - N/A   Overcast
8:55 PM 24.8 °F 16.1 °F 19.4 °F 80% 30.33 in 10.0 mi West 8.1 mph - N/A   Overcast
9:15 PM 24.8 °F 19.1 °F 19.4 °F 80% 30.32 in 10.0 mi WNW 4.6 mph - N/A   Overcast
9:35 PM 24.8 °F 20.5 °F 17.6 °F 74% 30.31 in 10.0 mi West 3.5 mph - N/A   Overcast
9:55 PM 24.8 °F - 19.4 °F 80% 30.30 in 10.0 mi Calm Calm - N/A   Overcast
10:15 PM 24.8 °F 19.1 °F 19.4 °F 80% 30.29 in 10.0 mi NW 4.6 mph - N/A   Overcast
10:35 PM 24.8 °F 19.1 °F 19.4 °F 80% 30.29 in 10.0 mi WNW 4.6 mph - N/A   Overcast
10:55 PM 24.8 °F - 17.6 °F 74% 30.28 in 10.0 mi Calm Calm - N/A   Overcast
11:15 PM 24.8 °F - 17.6 °F 74% 30.28 in 10.0 mi Calm Calm - N/A   Overcast
11:35 PM 24.8 °F 20.5 °F 19.4 °F 80% 30.28 in 10.0 mi West 3.5 mph - N/A   Overcast
11:55 PM 24.8 °F - 19.4 °F 80% 30.28 in 10.0 mi Calm Calm - N/A   Overcast